Powrót do katalogu

FENGYUN 1C DEB

AktywnySSO
NORAD 30395·DEBRIS·🇨🇳 China

Wystrzelony May 10, 1999 z Taiyuan Satellite Launch Center

Loading…

Następne Przeloty (najbliższe 24 godziny)

TLE

ŚwieżeSource: Space-Track

Epoka: Sep 14, 2026, 06:38 UTC

1 30395U 99025ADJ 26257.27676222  .00000414  00000-0  29471-3 0  9996
2 30395  98.9212 269.8595 0159345 346.8476  74.0450 13.97035155998704

Śledź FENGYUN 1C DEB w czasie rzeczywistym z AllMySat

Download on the App Store